DW5018 Cobb Island MD US current weather conditions

sailwx.info

Wind from 325

Air temperature -3.3° C
Dewpoint -10.6° C

Last reported at 2020-Jan-21 06:03 UTC.
Time now 2020-Jan-21 06:17 UTC

Location: N 38°16' W 076°51'.
View on Google Maps.

See reports from other nearby stations

  
Tides and Currents Weather Stations Pressure Air Temp Water Temp Dewpoint Dewpoint Depression Visibility Wind Speed Wind Dir Waves Ship Positions
date/time (UTC)wind fromknots sea level pressurealtimeterstation pressurevisibilityair tempwater tempwave heightnotes
2020-Jan-21 06:03 325 -3.3
2020-Jan-21 05:58 325 -3.3
2020-Jan-21 05:53 325 -2.8
2020-Jan-21 05:48 325 -2.8
2020-Jan-21 05:43 325 0 gusting 2 -2.8
2020-Jan-21 05:38 325 1 gusting 2 -2.8
2020-Jan-21 05:33 325 0 gusting 1 -3.3
2020-Jan-21 05:28 325 0 gusting 1 -3.3
2020-Jan-21 05:23 325 0 gusting 1 -3.3
2020-Jan-21 05:18 325 -3.3
2020-Jan-21 05:13 325 0 gusting 2 -2.8
2020-Jan-21 05:08 325 0 gusting 1 -2.8
2020-Jan-21 05:03 325 0 gusting 1 -2.8
2020-Jan-21 04:58 325 -2.8
2020-Jan-21 04:53 325 0 gusting 2 -2.8
2020-Jan-21 04:48 325 -2.8
2020-Jan-21 04:43 324 -2.8
2020-Jan-21 04:38 324 -2.8
2020-Jan-21 04:33 324 -2.8
2020-Jan-21 04:28 325 0 gusting 3 -2.8
2020-Jan-21 04:23 325 0 gusting 1 -2.8
2020-Jan-21 04:18 325 0 gusting 1 -2.8
2020-Jan-21 04:13 325 0 gusting 2 -2.8
2020-Jan-21 04:08 325 0 gusting 2 -2.8
2020-Jan-21 04:03 327 1 gusting 2 -2.8
2020-Jan-21 03:58 338 0 gusting 1 -2.8
2020-Jan-21 03:53 338 0 gusting 1 -2.2
2020-Jan-21 03:48 338 0 gusting 2 -2.2
2020-Jan-21 03:43 355 1 gusting 2 -2.2
2020-Jan-21 03:38 349 0 gusting 2 -2.2
2020-Jan-21 03:33 349 0 gusting 3 -2.2
2020-Jan-21 03:28 339 -2.2
2020-Jan-21 03:23 315 2 gusting 3 -2.2
2020-Jan-21 03:18 338 1 gusting 3 -2.2
2020-Jan-21 03:13 314 0 gusting 3 -2.2
2020-Jan-21 03:08 355 1 gusting 2 -2.2
2020-Jan-21 03:03 340 0 gusting 3 -2.2
2020-Jan-21 02:58 355 0 gusting 3 -2.2
2020-Jan-21 02:53 319 0 gusting 3 -2.2
2020-Jan-21 02:48 336 0 gusting 2 -2.2
2020-Jan-21 02:43 341 0 gusting 4 -2.2
2020-Jan-21 02:38 341 1 gusting 4 -2.2
2020-Jan-21 02:33 320 -2.2
2020-Jan-21 02:28 320 1 gusting 2 -2.2
2020-Jan-21 02:23 323 0 gusting 2 -2.2
2020-Jan-21 02:18 323 0 gusting 2 -2.2
2020-Jan-21 02:13 323 0 gusting 2 -2.2
2020-Jan-21 02:08 323 0 gusting 2 -2.2
2020-Jan-21 02:03 323 0 gusting 1 -2.2
2020-Jan-21 01:58 323 0 gusting 2 -2.2
2020-Jan-21 01:53 333 0 gusting 1 -2.2
2020-Jan-21 01:48 333 -1.7
2020-Jan-21 01:43 333 -1.7
2020-Jan-21 01:38 333 -1.7
2020-Jan-21 01:33 333 0 gusting 3 -1.7
2020-Jan-21 01:28 319 0 gusting 2 -1.7
2020-Jan-21 01:23 327 0 gusting 2 -1.7
2020-Jan-21 01:18 327 -1.7
2020-Jan-21 01:13 348 0 gusting 2 -1.1
2020-Jan-21 01:08 328 0 gusting 3 -1.1
2020-Jan-21 01:03 328 1 gusting 3 -1.1
2020-Jan-21 00:58 350 1 gusting 3 -1.1
2020-Jan-21 00:53 335 0 gusting 3 -1.1
2020-Jan-21 00:48 309 0 gusting 3 -1.1
2020-Jan-21 00:43 331 0 gusting 6 -1.1
2020-Jan-21 00:38 314 3 gusting 6 -1.1
2020-Jan-21 00:33 337 1 gusting 4 -1.1
2020-Jan-21 00:28 341 0 gusting 3 -1.1
2020-Jan-21 00:23 321 1 gusting 3 -0.6
2020-Jan-21 00:18 336 2 gusting 3 -0.6
2020-Jan-21 00:13 016 1 gusting 5 -0.6
2020-Jan-21 00:08 337 2 gusting 5 -0.6
2020-Jan-21 00:03 323 2 gusting 5 -0.6
2020-Jan-20 23:58 319 0 gusting 5 -0.6
2020-Jan-20 23:53 332 0 gusting 6 -0.6
2020-Jan-20 23:48 323 3 gusting 6 -0.6
2020-Jan-20 23:43 321 2 gusting 5 -0.6
2020-Jan-20 23:38 288 3 gusting 5 -0.6
2020-Jan-20 23:33 319 3 gusting 5 -0.6
2020-Jan-20 23:28 340 0 gusting 6 -0.6
2020-Jan-20 23:23 331 3 gusting 6 -0.6
2020-Jan-20 23:18 333 4 gusting 6 -0.6
2020-Jan-20 23:13 334 2 gusting 5 -0.6
2020-Jan-20 23:08 311 2 gusting 5 -0.6
2020-Jan-20 23:03 315 2 gusting 5 -0.0
2020-Jan-20 22:58 306 2 gusting 5 -0.0
2020-Jan-20 22:53 303 1 gusting 6 -0.0
2020-Jan-20 22:48 296 1 gusting 7 -0.0
2020-Jan-20 22:43 306 3 gusting 7 -0.0
2020-Jan-20 22:38 355 3 gusting 5 -0.0
2020-Jan-20 22:33 298 2 gusting 6 -0.0
2020-Jan-20 22:28 327 3 gusting 6 0.6
2020-Jan-20 22:23 324 2 gusting 6 0.6
2020-Jan-20 22:18 313 1 gusting 6 0.6
2020-Jan-20 22:13 325 3 gusting 8 0.6
2020-Jan-20 22:08 319 2 gusting 8 0.6
2020-Jan-20 22:03 019 1 gusting 6 1.1
2020-Jan-20 21:58 325 2 gusting 6 1.1
2020-Jan-20 21:53 303 4 gusting 8 1.1
2020-Jan-20 21:48 311 4 gusting 8 1.7
2020-Jan-20 21:43 323 4 gusting 8 1.7
2020-Jan-20 21:38 306 4 gusting 8 1.7
2020-Jan-20 21:33 309 6 gusting 8 1.7
2020-Jan-20 21:28 340 4 gusting 9 2.2
2020-Jan-20 21:23 355 3 gusting 10 2.2
2020-Jan-20 21:18 320 5 gusting 8 2.2
2020-Jan-20 21:13 327 1 gusting 7 2.2
2020-Jan-20 21:08 020 4 gusting 7 2.2
2020-Jan-20 21:03 336 4 gusting 7 2.2
2020-Jan-20 20:58 335 4 gusting 10 2.2
2020-Jan-20 20:53 355 6 gusting 10 2.2
2020-Jan-20 20:48 339 5 gusting 8 2.8
2020-Jan-20 20:43 309 6 gusting 8 2.8
2020-Jan-20 20:38 065 4 gusting 7 2.8
2020-Jan-20 20:33 315 4 gusting 10 2.8
2020-Jan-20 20:28 325 6 gusting 10 2.8
2020-Jan-20 20:23 323 3 gusting 10 2.8
2020-Jan-20 20:18 057 3 gusting 8 2.8
2020-Jan-20 20:13 056 2 gusting 7 2.8
2020-Jan-20 20:08 343 3 gusting 10 2.8
2020-Jan-20 20:03 005 3 gusting 10 2.8
2020-Jan-20 19:58 331 2 gusting 9 2.8
2020-Jan-20 19:53 355 6 gusting 9 2.8
2020-Jan-20 19:48 048 2 gusting 12 2.8
2020-Jan-20 19:43 330 2 gusting 12 2.8
2020-Jan-20 19:38 302 2 gusting 8 2.8
2020-Jan-20 19:33 012 4 gusting 10 2.8
2020-Jan-20 19:28 331 3 gusting 11 2.2
2020-Jan-20 19:23 014 4 gusting 11 2.2
2020-Jan-20 19:18 344 2 gusting 8 2.8
2020-Jan-20 19:13 315 3 gusting 8 2.2
2020-Jan-20 19:08 355 1 gusting 8 2.2
2020-Jan-20 19:03 336 3 gusting 8 2.2
2020-Jan-20 18:58 355 5 gusting 7 2.2
2020-Jan-20 18:53 300 3 gusting 8 2.2
2020-Jan-20 18:48 344 3 gusting 8 2.2
2020-Jan-20 18:43 339 3 gusting 10 2.2
2020-Jan-20 18:38 026 1 gusting 10 2.2
2020-Jan-20 18:33 342 6 gusting 9 2.2
2020-Jan-20 18:28 302 2 gusting 6 2.2
2020-Jan-20 18:23 325 3 gusting 7 2.2
2020-Jan-20 18:18 028 3 gusting 7 2.2
2020-Jan-20 18:13 342 2 gusting 8 2.2
2020-Jan-20 18:08 014 2 gusting 9 1.7
2020-Jan-20 18:03 028 3 gusting 9 1.7
2020-Jan-20 17:58 346 2 gusting 10 1.7
2020-Jan-20 17:53 325 5 gusting 10 1.7
2020-Jan-20 17:48 018 3 gusting 11 1.1
2020-Jan-20 17:43 319 5 gusting 11 1.1
2020-Jan-20 17:38 303 4 gusting 11 1.1
2020-Jan-20 17:33 338 2 gusting 11 1.1
2020-Jan-20 17:28 034 1 gusting 8 1.1
2020-Jan-20 17:23 311 6 gusting 8 1.1
2020-Jan-20 17:18 333 5 gusting 7 1.1
2020-Jan-20 17:13 029 3 gusting 6 1.1
2020-Jan-20 17:08 305 2 gusting 11 0.6
2020-Jan-20 17:03 005 2 gusting 11 0.6
2020-Jan-20 16:58 005 2 gusting 10 0.6
2020-Jan-20 16:53 326 3 gusting 9 0.6
2020-Jan-20 16:48 321 3 gusting 9 0.6
2020-Jan-20 16:43 347 2 gusting 6 0.6
2020-Jan-20 16:38 360 4 gusting 6 0.6
2020-Jan-20 16:33 032 2 gusting 13 -0.0
2020-Jan-20 16:28 313 7 gusting 14 -0.0
2020-Jan-20 16:23 290 3 gusting 14 -0.0
2020-Jan-20 16:18 291 5 gusting 9 -0.0
2020-Jan-20 16:13 333 6 gusting 9 -0.0
2020-Jan-20 16:08 075 3 gusting 8 -0.6
2020-Jan-20 16:03 344 4 gusting 10 -0.6
2020-Jan-20 15:58 355 4 gusting 10 -0.0
2020-Jan-20 15:53 355 1 gusting 9 -0.6
2020-Jan-20 15:48 047 1 gusting 8 -0.6
2020-Jan-20 15:43 338 5 gusting 10 -0.6
2020-Jan-20 15:38 321 3 gusting 13 -0.6
2020-Jan-20 15:33 355 5 gusting 13 -0.6
2020-Jan-20 15:28 337 2 gusting 10 -0.6
2020-Jan-20 15:23 328 6 gusting 10 -1.1
2020-Jan-20 15:18 336 5 gusting 11 -1.1
2020-Jan-20 15:13 024 2 gusting 11 -1.1
2020-Jan-20 15:08 317 4 gusting 10 -1.1
2020-Jan-20 15:03 344 4 gusting 11 -1.7
2020-Jan-20 14:58 304 5 gusting 11 -1.7
2020-Jan-20 14:53 005 4 gusting 15 -1.7
2020-Jan-20 14:48 355 4 gusting 15 -1.7
2020-Jan-20 14:43 033 4 gusting 13 -1.7
2020-Jan-20 14:38 016 6 gusting 13 -1.7
2020-Jan-20 14:33 327 3 gusting 14 -2.2
2020-Jan-20 14:28 019 5 gusting 14 -2.2
2020-Jan-20 14:23 349 3 gusting 10 -2.2
2020-Jan-20 14:18 355 3 gusting 10 -2.2
2020-Jan-20 14:13 309 3 gusting 13 -2.2
2020-Jan-20 14:08 306 6 gusting 13 -2.2
2020-Jan-20 14:03 343 2 gusting 10 -2.2
2020-Jan-20 13:58 355 5 gusting 10 -2.8
2020-Jan-20 13:53 030 4 gusting 12 -2.8
2020-Jan-20 13:48 302 6 gusting 13 -2.8
2020-Jan-20 13:43 336 6 gusting 13 -2.8
2020-Jan-20 13:38 322 6 gusting 10 -2.8
2020-Jan-20 13:33 346 5 gusting 10 -2.8
2020-Jan-20 13:28 360 2 gusting 11 -2.8
2020-Jan-20 13:23 302 5 gusting 11 -3.3
2020-Jan-20 13:18 011 4 gusting 10 -3.3
2020-Jan-20 13:13 332 3 gusting 13 -3.3
2020-Jan-20 13:08 327 6 gusting 13 -3.3
2020-Jan-20 13:03 023 3 gusting 13 -3.3
2020-Jan-20 12:58 303 4 gusting 10 -3.3
2020-Jan-20 12:53 302 6 gusting 10 -3.9
2020-Jan-20 12:48 321 3 gusting 7 -3.9
2020-Jan-20 12:43 355 4 gusting 9 -3.9
2020-Jan-20 12:38 322 5 gusting 9 -3.9
2020-Jan-20 12:33 323 5 gusting 8 -3.9
2020-Jan-20 12:28 325 1 gusting 12 -3.9
2020-Jan-20 12:23 321 6 gusting 12 -3.9
2020-Jan-20 12:18 343 4 gusting 9 -3.9
2020-Jan-20 12:13 304 4 gusting 9 -3.9
2020-Jan-20 12:08 294 1 gusting 8 -3.9
2020-Jan-20 12:03 260 3 gusting 11 -3.9
2020-Jan-20 11:58 304 6 gusting 11 -3.9
2020-Jan-20 11:53 338 2 gusting 8 -3.9
2020-Jan-20 11:48 350 3 gusting 9 -3.9
2020-Jan-20 11:43 320 5 gusting 12 -3.9
2020-Jan-20 11:38 344 4 gusting 12 -3.9
2020-Jan-20 11:33 298 4 gusting 9 -3.9
2020-Jan-20 11:28 332 4 gusting 13 -3.9
2020-Jan-20 11:23 327 4 gusting 10 -3.9
2020-Jan-20 11:18 314 4 gusting 11 -3.9
2020-Jan-20 11:13 317 2 gusting 11 -3.9
2020-Jan-20 11:08 306 2 gusting 6 -3.9
2020-Jan-20 11:03 311 3 gusting 7 -3.9
2020-Jan-20 10:58 311 4 gusting 8 -3.9
2020-Jan-20 10:53 286 2 gusting 9 -3.9
2020-Jan-20 10:48 318 6 gusting 9 -3.3
2020-Jan-20 10:43 300 3 gusting 8 -3.9
2020-Jan-20 10:38 332 4 gusting 9 -3.3
2020-Jan-20 10:33 281 4 gusting 9 -3.3
2020-Jan-20 10:28 329 2 gusting 13 -3.3
2020-Jan-20 10:23 332 4 gusting 13 -3.3
2020-Jan-20 10:13 348 3 gusting 12 -3.3
2020-Jan-20 10:08 327 6 gusting 12 -3.3
2020-Jan-20 10:03 347 4 gusting 10 -3.3
2020-Jan-20 09:58 311 2 gusting 8 -3.3
2020-Jan-20 09:53 339 5 gusting 10 -3.3
2020-Jan-20 09:48 326 2 gusting 11 -2.8
2020-Jan-20 09:43 324 3 gusting 11 -2.8
2020-Jan-20 09:38 326 3 gusting 10 -2.8
2020-Jan-20 09:33 346 5 gusting 10 -2.8
2020-Jan-20 09:28 315 3 gusting 8 -2.8
2020-Jan-20 09:23 311 4 gusting 10 -2.8
2020-Jan-20 09:18 317 6 gusting 12 -2.8
2020-Jan-20 09:13 355 6 gusting 12 -2.8
2020-Jan-20 09:08 302 5 gusting 15 -2.8
2020-Jan-20 09:03 321 5 gusting 15 -2.8
2020-Jan-20 08:58 299 6 gusting 13 -2.8
2020-Jan-20 08:53 360 6 gusting 13 -2.8
2020-Jan-20 08:48 286 4 gusting 13 -2.8
2020-Jan-20 08:43 330 7 gusting 13 -2.8
2020-Jan-20 08:38 306 6 gusting 12 -2.8
2020-Jan-20 08:33 302 5 gusting 10 -2.8
2020-Jan-20 08:28 300 6 gusting 10 -2.8
2020-Jan-20 08:23 309 5 gusting 9 -2.8
2020-Jan-20 08:18 338 5 gusting 13 -2.8
2020-Jan-20 08:13 322 5 gusting 13 -2.8
2020-Jan-20 08:08 265 4 gusting 9 -2.8
2020-Jan-20 08:03 316 5 gusting 9 -2.8
2020-Jan-20 07:58 300 4 gusting 7 -2.8
2020-Jan-20 07:53 336 4 gusting 9 -2.8
2020-Jan-20 07:48 005 5 gusting 11 -2.8
2020-Jan-20 07:43 304 6 gusting 9 -2.8
2020-Jan-20 07:38 284 6 gusting 12 -2.8
2020-Jan-20 07:33 310 4 gusting 14 -2.8
2020-Jan-20 07:28 304 6 gusting 14 -2.8
2020-Jan-20 07:23 309 6 gusting 11 -2.8
2020-Jan-20 07:18 324 2 gusting 10 -2.2
2020-Jan-20 07:13 298 6 gusting 10 -2.2
2020-Jan-20 07:08 010 4 gusting 8 -2.2
2020-Jan-20 07:03 005 3 gusting 8 -2.2
2020-Jan-20 06:58 318 2 gusting 10 -2.2
2020-Jan-20 06:53 334 5 gusting 12 -2.2
2020-Jan-20 06:48 304 6 gusting 12 -2.2
2020-Jan-20 06:43 277 3 gusting 11 -2.2
2020-Jan-20 06:38 327 4 gusting 12 -2.2
2020-Jan-20 06:33 005 7 gusting 14 -2.2
2020-Jan-20 06:28 298 6 gusting 14 -2.2
2020-Jan-20 06:23 348 6 gusting 15 -2.2
2020-Jan-20 06:18 313 7 gusting 15 -1.7
2020-Jan-20 06:13 355 5 gusting 12 -1.7
2020-Jan-20 06:08 284 6 gusting 10 -1.7
2020-Jan-20 06:03 269 3 gusting 10 -1.7
2020-Jan-20 05:58 327 4 gusting 9 -1.7
2020-Jan-20 05:53 326 4 gusting 9 -1.7
2020-Jan-20 05:48 317 5 gusting 14 -1.7
2020-Jan-20 05:43 298 6 gusting 14 -1.7
2020-Jan-20 05:38 317 9 gusting 14 -1.7
2020-Jan-20 05:33 321 5 gusting 8 -1.7
2020-Jan-20 05:28 302 5 gusting 8 -1.7
2020-Jan-20 05:23 310 1 gusting 4 -1.7
2020-Jan-20 05:18 339 1 gusting 5 -1.1
2020-Jan-20 05:13 190 4 gusting 7 -1.7
2020-Jan-20 05:08 190 4 gusting 7 -1.7
2020-Jan-20 05:03 190 3 gusting 7 -1.7
2020-Jan-20 04:58 190 3 gusting 7 -1.1
2020-Jan-20 04:53 190 5 gusting 12 -1.1
2020-Jan-20 04:48 190 7 gusting 13 -1.1
2020-Jan-20 04:43 190 7 gusting 11 -1.1
2020-Jan-20 04:38 190 8 gusting 13 -1.1
2020-Jan-20 04:33 190 9 gusting 13 -1.1
2020-Jan-20 04:28 190 8 gusting 13 -1.1
2020-Jan-20 04:23 190 8 gusting 16 -1.1
2020-Jan-20 04:18 190 10 gusting 17 -1.1
2020-Jan-20 04:13 190 11 gusting 17 -1.1
2020-Jan-20 04:08 190 9 gusting 13 -0.6
2020-Jan-20 04:03 190 7 gusting 17 -0.6
2020-Jan-20 03:58 190 11 gusting 17 -0.6
2020-Jan-20 03:53 190 6 gusting 11 -0.6
2020-Jan-20 03:48 190 6 gusting 14 -0.6
2020-Jan-20 03:43 190 6 gusting 17 -0.6
2020-Jan-20 03:38 190 13 gusting 17 -0.6
2020-Jan-20 03:33 190 11 gusting 14 -0.6
2020-Jan-20 03:28 190 9 gusting 13 -0.0
2020-Jan-20 03:23 190 7 gusting 19 -0.0
2020-Jan-20 03:18 190 14 gusting 20 -0.0
2020-Jan-20 03:13 190 8 gusting 20 -0.0
2020-Jan-20 03:08 190 8 gusting 20 -0.0
2020-Jan-20 03:03 190 13 gusting 20 -0.0
2020-Jan-20 02:58 190 13 gusting 20 -0.0
2020-Jan-20 02:53 190 16 gusting 20 -0.0
2020-Jan-20 02:48 190 12 gusting 25 -0.0
2020-Jan-20 02:43 190 19 gusting 25 0.6
2020-Jan-20 02:38 190 15 gusting 20 -0.0
2020-Jan-20 02:33 190 10 gusting 20 0.6
2020-Jan-20 02:28 190 13 gusting 23 0.6
2020-Jan-20 02:23 190 13 gusting 24 0.6
2020-Jan-20 02:18 190 13 gusting 24 0.6
2020-Jan-20 02:13 190 14 gusting 20 0.6
2020-Jan-20 02:08 355 7 gusting 12 0.6
2020-Jan-20 02:03 299 6 gusting 13 1.1
2020-Jan-20 01:58 329 6 gusting 13 1.1
2020-Jan-20 01:53 315 6 gusting 11 0.6
2020-Jan-20 01:48 346 4 gusting 7 1.1
2020-Jan-20 01:43 360 2 gusting 8 1.1
2020-Jan-20 01:38 323 1 gusting 6 1.1
2020-Jan-20 01:33 319 4 gusting 10 1.1
2020-Jan-20 01:28 314 6 gusting 13 1.1
2020-Jan-20 01:23 310 7 gusting 15 1.1
2020-Jan-20 01:18 317 4 gusting 16 1.1
2020-Jan-20 01:13 309 6 gusting 16 1.1
2020-Jan-20 01:08 299 5 gusting 9 1.1
2020-Jan-20 01:03 307 4 gusting 12 1.1
2020-Jan-20 00:58 289 5 gusting 12 1.1
2020-Jan-20 00:53 328 3 gusting 9 1.1
2020-Jan-20 00:48 316 5 gusting 9 1.1
2020-Jan-20 00:43 298 5 gusting 11 1.7
2020-Jan-20 00:38 329 6 gusting 11 1.7
2020-Jan-20 00:33 336 5 gusting 12 1.7
2020-Jan-20 00:28 327 6 gusting 12 1.7
2020-Jan-20 00:23 319 6 gusting 13 1.7
2020-Jan-20 00:18 298 6 gusting 13 1.7
2020-Jan-20 00:13 057 6 gusting 13 1.7
2020-Jan-20 00:08 333 5 gusting 16 1.7
2020-Jan-20 00:03 331 8 gusting 16 1.7
2020-Jan-19 23:58 337 5 gusting 11 1.7
2020-Jan-19 23:53 024 4 gusting 10 1.7
2020-Jan-19 23:48 296 4 gusting 13 1.7
2020-Jan-19 23:43 340 6 gusting 13 1.7
2020-Jan-19 23:38 298 5 gusting 13 1.7
2020-Jan-19 23:33 015 2 gusting 13 1.7
2020-Jan-19 23:28 049 3 gusting 11 2.2
2020-Jan-19 23:23 360 3 gusting 14 2.2
2020-Jan-19 23:18 317 7 gusting 14 2.2
2020-Jan-19 23:13 339 6 gusting 14 2.2
2020-Jan-19 23:08 304 5 gusting 10 2.2
2020-Jan-19 23:03 355 6 gusting 12 2.2
2020-Jan-19 22:58 341 3 gusting 15 2.2
2020-Jan-19 22:53 355 4 gusting 15 2.2
2020-Jan-19 22:48 284 6 gusting 14 2.8
2020-Jan-19 22:43 009 5 gusting 13 2.8
2020-Jan-19 22:38 330 7 gusting 15 2.8
2020-Jan-19 22:33 295 7 gusting 15 2.8
2020-Jan-19 22:28 339 6 gusting 16 2.8
2020-Jan-19 22:23 298 8 gusting 16 2.8
2020-Jan-19 22:18 318 7 gusting 16 3.3
2020-Jan-19 22:13 009 6 gusting 16 3.3
2020-Jan-19 22:08 280 6 gusting 15 3.3
2020-Jan-19 22:03 311 6 gusting 14 3.3
2020-Jan-19 21:58 337 6 gusting 19 3.3
2020-Jan-19 21:53 333 7 gusting 19 3.9
2020-Jan-19 21:48 360 7 gusting 14 3.9
2020-Jan-19 21:43 019 4 gusting 19 3.9
2020-Jan-19 21:38 355 8 gusting 19 4.4
2020-Jan-19 21:33 320 7 gusting 14 4.4
2020-Jan-19 21:28 355 6 gusting 14 4.4
2020-Jan-19 21:23 340 5 gusting 14 4.4
2020-Jan-19 21:18 005 7 gusting 17 5.0
2020-Jan-19 21:13 339 6 gusting 17 5.0
2020-Jan-19 21:08 330 6 gusting 15 5.6
2020-Jan-19 21:03 057 8 gusting 15 5.6
2020-Jan-19 20:58 360 6 gusting 12 5.6
2020-Jan-19 20:53 348 6 gusting 15 5.6
2020-Jan-19 20:48 360 9 gusting 15 5.6
2020-Jan-19 20:43 344 5 gusting 11 5.6
2020-Jan-19 20:38 312 5 gusting 14 5.6
2020-Jan-19 20:33 355 7 gusting 14 5.6
2020-Jan-19 20:28 338 5 gusting 15 5.6
2020-Jan-19 20:23 332 6 gusting 17 5.6
2020-Jan-19 20:18 005 9 gusting 17 5.6
2020-Jan-19 20:13 321 6 gusting 17 6.7
2020-Jan-19 20:08 317 6 gusting 17 6.7
2020-Jan-19 20:03 038 5 gusting 15 6.7
2020-Jan-19 19:58 012 6 gusting 15 6.7
2020-Jan-19 19:53 328 5 gusting 13 7.2
2020-Jan-19 19:48 313 3 gusting 13 6.7
2020-Jan-19 19:43 303 6 gusting 13 6.7
2020-Jan-19 19:38 340 5 gusting 13 6.7
2020-Jan-19 19:33 017 5 gusting 13 6.7
2020-Jan-19 19:28 030 6 gusting 11 6.7
2020-Jan-19 19:23 013 5 gusting 10 7.2
2020-Jan-19 19:18 050 3 gusting 11 7.2
2020-Jan-19 19:13 322 6 gusting 11 7.8
2020-Jan-19 19:08 035 6 gusting 11 7.8
2020-Jan-19 19:03 009 6 gusting 13 8.3
2020-Jan-19 18:58 009 5 gusting 15 8.3
2020-Jan-19 18:53 122 5 gusting 15 8.3
2020-Jan-19 18:48 320 5 gusting 10 8.3
2020-Jan-19 18:43 307 5 gusting 12 7.8
2020-Jan-19 18:38 300 2 gusting 15 7.8
2020-Jan-19 18:33 045 7 gusting 15 7.8
2020-Jan-19 18:28 355 4 gusting 8 8.3
2020-Jan-19 18:23 038 4 gusting 8 8.3
2020-Jan-19 18:18 036 4 gusting 8 8.9
2020-Jan-19 18:13 035 3 gusting 8 9.4
2020-Jan-19 18:08 034 5 gusting 8 9.4
2020-Jan-19 18:03 019 2 gusting 9 9.4
2020-Jan-19 17:58 327 5 gusting 9 9.4
2020-Jan-19 17:53 011 4 gusting 11 9.4
2020-Jan-19 17:48 297 6 gusting 11 9.4
2020-Jan-19 17:43 050 2 gusting 10 9.4
2020-Jan-19 17:38 045 6 gusting 10 9.4
2020-Jan-19 17:33 319 6 gusting 9 9.4
2020-Jan-19 17:28 326 5 gusting 13 9.4
2020-Jan-19 17:23 029 2 gusting 13 9.4
2020-Jan-19 17:18 328 6 gusting 11 9.4
2020-Jan-19 17:13 342 3 gusting 11 9.4
2020-Jan-19 17:08 306 6 gusting 13 8.9
2020-Jan-19 17:03 344 4 gusting 13 8.9
2020-Jan-19 16:58 030 3 gusting 10 8.9
2020-Jan-19 16:53 333 4 gusting 8 8.9
2020-Jan-19 16:48 267 3 gusting 8 8.9
2020-Jan-19 16:43 038 2 gusting 12 8.3
2020-Jan-19 16:38 345 6 gusting 12 8.3
2020-Jan-19 16:33 324 5 gusting 11 8.3
2020-Jan-19 16:28 308 6 gusting 12 8.3
2020-Jan-19 16:23 042 2 gusting 12 8.3
2020-Jan-19 16:18 013 6 gusting 9 8.3
2020-Jan-19 16:13 344 4 gusting 9 8.3
2020-Jan-19 16:08 298 2 gusting 10 8.3
2020-Jan-19 16:03 342 5 gusting 10 8.3
2020-Jan-19 15:58 331 3 gusting 13 8.3
2020-Jan-19 15:53 250 1 gusting 11 8.3
2020-Jan-19 15:48 346 6 gusting 12 8.3
2020-Jan-19 15:43 005 7 gusting 12 8.9
2020-Jan-19 15:38 316 2 gusting 10 8.9
2020-Jan-19 15:33 355 6 gusting 10 8.9
2020-Jan-19 15:28 030 2 gusting 10 8.9
2020-Jan-19 15:23 045 4 gusting 7 9.4
2020-Jan-19 15:18 350 5 gusting 7 9.4
2020-Jan-19 15:13 075 3 gusting 6 9.4
2020-Jan-19 15:08 337 2 gusting 6 9.4
2020-Jan-19 15:03 325 3 gusting 9 9.4
2020-Jan-19 14:58 360 5 gusting 9 9.4
2020-Jan-19 14:53 355 5 gusting 8 10.0
2020-Jan-19 14:48 336 2 gusting 6 10.0
2020-Jan-19 14:43 270 4 gusting 6 9.4
2020-Jan-19 14:38 331 2 gusting 6 9.4
2020-Jan-19 14:33 281 2 gusting 6 9.4
2020-Jan-19 14:28 275 2 gusting 6 9.4
2020-Jan-19 14:23 021 3 gusting 6 8.9
2020-Jan-19 14:18 013 2 gusting 6 8.9
2020-Jan-19 14:13 307 5 gusting 7 8.9
2020-Jan-19 14:08 290 5 gusting 7 8.9
2020-Jan-19 14:03 320 4 gusting 6 8.3
2020-Jan-19 13:58 337 2 gusting 6 8.3
2020-Jan-19 13:53 275 3 gusting 6 8.3
2020-Jan-19 13:48 275 2 gusting 3 8.3
2020-Jan-19 13:43 329 0 gusting 2 8.3
2020-Jan-19 13:38 018 7.8
2020-Jan-19 13:33 018 7.2
2020-Jan-19 13:28 018 0 gusting 1 6.7
2020-Jan-19 13:23 347 0 gusting 3 6.7
2020-Jan-19 13:18 347 1 gusting 3 6.7
2020-Jan-19 13:13 290 0 gusting 2 6.7
2020-Jan-19 13:08 300 1 gusting 2 6.7
2020-Jan-19 13:03 324 1 gusting 2 6.7
2020-Jan-19 12:58 315 1 gusting 3 6.7
2020-Jan-19 12:53 315 0 gusting 3 6.7
2020-Jan-19 12:48 306 1 gusting 4 6.7
2020-Jan-19 12:43 341 6.7
2020-Jan-19 12:38 343 1 gusting 3 6.7
2020-Jan-19 12:33 329 0 gusting 3 6.7
2020-Jan-19 12:28 329 0 gusting 3 6.7
2020-Jan-19 12:23 009 2 gusting 5 6.7
2020-Jan-19 12:18 331 1 gusting 5 6.7
2020-Jan-19 12:13 313 1 gusting 6 6.7
2020-Jan-19 12:08 336 3 gusting 6 7.2
2020-Jan-19 12:03 321 1 gusting 5 7.2
2020-Jan-19 11:58 342 2 gusting 5 7.2
2020-Jan-19 11:53 345 1 gusting 6 7.2
2020-Jan-19 11:48 360 2 gusting 6 7.8
2020-Jan-19 11:43 268 5 gusting 7 7.2
2020-Jan-19 11:38 252 6 gusting 7 7.2
2020-Jan-19 11:33 285 4 gusting 5 7.2
2020-Jan-19 11:28 319 1 gusting 6 7.8
2020-Jan-19 11:23 294 2 gusting 6 7.8
2020-Jan-19 11:18 276 3 gusting 6 7.8
2020-Jan-19 11:13 308 4 gusting 14 8.3
2020-Jan-19 11:08 253 8 gusting 15 8.3
2020-Jan-19 11:03 245 13 gusting 15 7.8
2020-Jan-19 10:58 332 5 gusting 7 7.8
2020-Jan-19 10:53 340 3 gusting 7 7.8
2020-Jan-19 10:48 293 4 gusting 8 7.8
2020-Jan-19 10:43 286 5 gusting 8 7.8
2020-Jan-19 10:38 269 6 gusting 8 7.8
2020-Jan-19 10:33 261 5 gusting 9 7.8
2020-Jan-19 10:28 276 5 gusting 9 7.8
2020-Jan-19 10:23 283 5 gusting 9 8.3
2020-Jan-19 10:18 262 6 gusting 9 8.3
2020-Jan-19 10:13 248 4 gusting 9 8.3
2020-Jan-19 10:08 282 5 gusting 13 8.3
2020-Jan-19 10:03 262 7 gusting 13 8.3
2020-Jan-19 09:58 267 6 gusting 10 8.3
2020-Jan-19 09:53 271 6 gusting 13 8.3
2020-Jan-19 09:48 244 8 gusting 13 8.3
2020-Jan-19 09:43 240 6 gusting 12 8.3
2020-Jan-19 09:38 222 7 gusting 11 8.3
2020-Jan-19 09:33 288 7 gusting 13 8.3
2020-Jan-19 09:28 244 7 gusting 13 8.3
2020-Jan-19 09:23 252 5 gusting 13 8.3
2020-Jan-19 09:18 243 6 gusting 15 8.3
2020-Jan-19 09:13 236 10 gusting 15 8.3
2020-Jan-19 09:08 242 8 gusting 15 8.3
2020-Jan-19 09:03 232 8 gusting 14 8.3
2020-Jan-19 08:58 251 11 gusting 15 8.3
2020-Jan-19 08:53 217 11 gusting 15 8.3
2020-Jan-19 08:48 248 8 gusting 15 8.3
2020-Jan-19 08:43 232 10 gusting 16 8.3
2020-Jan-19 08:38 253 7 gusting 16 8.3
2020-Jan-19 08:33 236 8 gusting 16 7.8
2020-Jan-19 08:28 234 9 gusting 16 7.8
2020-Jan-19 08:23 247 10 gusting 15 7.8
2020-Jan-19 08:18 231 7 gusting 16 7.8
2020-Jan-19 08:13 215 8 gusting 16 7.8
2020-Jan-19 08:08 227 9 gusting 16 7.8
2020-Jan-19 08:03 227 11 gusting 16 7.8
2020-Jan-19 07:58 227 10 gusting 14 7.8
2020-Jan-19 07:53 252 8 gusting 13 7.8
2020-Jan-19 07:48 227 8 gusting 13 7.8
2020-Jan-19 07:43 235 7 gusting 13 7.8
2020-Jan-19 07:38 225 8 gusting 16 7.8
2020-Jan-19 07:33 242 8 gusting 14 7.8
2020-Jan-19 07:28 231 6 gusting 15 7.8
2020-Jan-19 07:23 222 9 gusting 18 7.8
2020-Jan-19 07:18 252 10 gusting 18 7.8
2020-Jan-19 07:13 244 10 gusting 16 7.8
2020-Jan-19 07:08 259 10 gusting 16 7.8
2020-Jan-19 07:03 246 11 gusting 19 7.8
2020-Jan-19 06:58 251 11 gusting 19 7.8
2020-Jan-19 06:53 244 10 gusting 16 7.2
2020-Jan-19 06:48 231 7 gusting 14 7.2
2020-Jan-19 06:43 244 9 gusting 14 7.2
2020-Jan-19 06:38 248 6 gusting 17 7.2
2020-Jan-19 06:33 235 10 gusting 17 7.2
2020-Jan-19 06:28 273 9 gusting 16 7.2
2020-Jan-19 06:23 230 10 gusting 16 6.7
2020-Jan-19 06:18 260 10 gusting 16 6.7
2020-Jan-19 06:13 228 8 gusting 15 6.7
2020-Jan-19 06:08 238 11 gusting 17 6.7
2020-Jan-19 06:03 226 12 gusting 19 6.7